Location: Unspecified
(0.0000°N, 0.0000°E)
Time: 05:50:55
(UTC+02:00)

Haruka - Visible Passes

Search period start: 17 April 2014 00:00
Search period end: 27 April 2014 00:00
Orbit: 540 x 21241 km, 31.2° (Epoch: 15 April)

Date Brightness Start Highest point End Pass type
(mag) Time Alt. Az. Time Alt. Az. Time Alt. Az.
17 Apr 8.4 03:00:37 73° S 03:31:45 79° SE 04:23:29 10° ENE visible
17 Apr 6.6 17:30:28 10° W 17:38:22 58° SSW 18:46:04 10° SE visible
18 Apr 8.2 00:31:21 10° SW 05:00:46 81° NW 05:33:42 10° NE visible
18 Apr 7.5 18:40:00 10° W 18:53:04 47° S 23:14:56 10° E visible
19 Apr 7.8 01:59:50 10° SW 06:20:13 59° NW 06:42:39 10° NE visible
19 Apr 8.4 19:50:43 10° WSW 20:15:44 43° S 00:57:21 10° E visible
20 Apr 7.5 03:51:01 10° WSW 07:34:50 38° NW 07:50:42 10° NNE visible
20 Apr 8.8 21:02:59 10° WSW 01:15:00 52° ESE 02:17:49 10° ENE visible
21 Apr 7.1 08:08:06 10° W 08:48:01 20° NW 08:57:37 10° N visible
21 Apr 8.5 22:17:19 10° SW 02:23:44 73° SE 03:31:47 10° ENE visible
22 Apr 8.3 23:34:40 10° SW 03:58:23 88° NW 04:42:51 10° NE visible
23 Apr 7.1 17:49:43 10° W 17:59:51 46° SSW 20:53:49 11° ESE visible
24 Apr 8.1 00:57:11 10° SW 05:23:11 67° NW 05:52:19 10° NE visible
24 Apr 8.0 18:59:57 10° WSW 19:18:10 41° S 23:56:27 10° E visible
25 Apr 7.8 02:31:19 10° SW 06:40:43 46° NW 07:00:49 10° NNE visible
25 Apr 8.6 20:11:25 10° WSW 00:31:46 42° E 01:23:04 10° ENE visible
26 Apr 7.3 04:59:20 10° WSW 07:55:16 27° NW 08:08:26 10° NNE visible
26 Apr 8.9 21:24:29 10° SW 00:00:00 59° SSE 00:00:00 59° SSE visible
